Location: Dal�� Lhota
(48.7500°N, 14.0167°E)
Time: 21:51:56
(UTC+00:00)

Transit 2A - Pass Details

Date: 30 July 2021
Orbit: 594 x 964 km, 66.7° (Epoch: 26 September)

Event Time Altitude Azimuth Distance (km) Brightness Sun altitude
Rises 04:40:00 0° 167° (SSE) 2,826 8.9 8.9°
Reaches altitude 10° 04:42:54 10° 145° (SE) 1,951 8.4 9.4°
Maximum altitude 04:45:36 16° 107° (ESE) 1,616 8.8 9.8°
Drops below altitude 10° 04:48:23 10° 69° (ENE) 2,036 11.4 10.3°
Sets 04:51:30 0° 48° (NE) 3,013 10.4 10.7°
